User: anonymous   Login
Location: Unspecified
(0.0000°N, 0.0000°E)
Time: 16:16:32
(UTC+00:00)
Language:

Explorer 38 - Orbit

View from above orbital plane
View from above orbital plane
View from above satellite
View from above satellite

Ground track
Ground track

The orbit data is extracted from the following two-line orbital elements,

1  3307U 68055A   19015.49819713 -.00000010 +00000-0 +00000-0 0  9997
2  3307 120.8094 181.4615 0007912 168.5277 191.5506 06.42462659185454
Epoch (UTC): 15 January 2019 11:57:24
Eccentricity: 0.0007912
inclination: 120.8094°
perigee height: 5835 km
apogee height: 5854 km
right ascension of ascending node: 181.4615°
argument of perigee: 168.5277°
revolutions per day: 6.42462659
mean anomaly at epoch: 191.5506°
orbit number at epoch: 18545

The dashed part of the orbit path shows where the satellite is in the earth's shadow,  

DLR